OCEANSAT-2

Last updated on Tue Dec 16 2025 00:02:32 GMT+0000 (Coordinated Universal Time)

1 35931U 09051A 25349.33559971 -.00000133 00000+0 -65250-4 0 9991 2 35931 98.2221 349.6730 0016150 38.2695 321.9615 13.99624094853612
UTC large
Height (km)
Speed (km/s)
/
Latitude / Longitude
Inclination (degrees)
Orbital Period (minutes)
Azimuth
Elevation
Range (km)
Doppler Factor

Next 0 passes for location: London (51.5072 / 0.1276)

Sorry there are no passes over London.